West Palm Beach, FL

7:48 PM EST on November 21, 2019 (GMT -0500)
Palm Beach International

Weather History for KPBI - July, 2019

Change the Weather History Date:

Saturday, July 20, 2019

  Actual Average Record
Temperature  
Mean Temperature 86 °F 83 °F  
Max Temperature 91 °F 90 °F 98 °F (1942)
Min Temperature 80 °F 76 °F 67 °F (1940)
Degree Days  
Heating Degree Days 0 0  
Month to date heating degree days 0 0  
Since 1 June heating degree days 0 0  
Since 1 July heating degree days 0 0  
Cooling Degree Days 21 18  
Month to date cooling degree days 396 349  
Year to date cooling degree days 2368 1948  
Since 1 June cooling degree days 967 839  
Growing Degree Days 36 (Base 50)    
Moisture  
Dew Point 74 °F    
Average Humidity 68    
Maximum Humidity 79    
Minimum Humidity 56    
Precipitation  
Precipitation T in 0.17 in 2.48 in (1951)
Month to date precipitation 0.89 3.82  
Year to date precipitation 29.09 30.83  
Snow  
Snow 0.00 in - - ()
Month to date snowfall 0.0  
Since 1 June snowfall 0.0  
Since 1 July snowfall 0.0  
Snow Depth 0.00 in    
Sea Level Pressure  
Sea Level Pressure 30.07 in    
Wind  
Wind Speed 9 mph (ESE)    
Max Wind Speed 18 mph    
Max Gust Speed 25 mph    
Visibility 10 miles    
Events Thunderstorm    
T = Trace of Precipitation, MM = Missing Value Source: NWS Daily Summary

Daily Weather History Graph

Daily Weather History Graph

Search for Another Location

Airport or City:

Astronomy

Jul. 20, 2019 Rise Set
Actual Time 6:38 AM EDT 8:14 PM EDT
Civil Twilight 6:13 AM EDT 8:39 PM EDT
Nautical Twilight 5:42 AM EDT 9:10 PM EDT
Astronomical Twilight 5:10 AM EDT 9:42 PM EDT
Moon 10:57 PM EDT (7/20) 9:48 AM EDT (7/20)
Length of Visible Light 14h 26m
Length of Day
13h 35m
Waning Gibbous, 87% of the Moon is Illuminated
Jul 20
Waning Gibbous
Jul 24
Last Quarter
Jul 31
New
Aug 7
First Quarter
Aug 15
Full

Hourly Weather History & Observations

Time (EDT) Temp. Heat Index Dew Point Humidity Pressure Visibility Wind Dir Wind Speed Gust Speed Precip Events Conditions
12:53 AM 82.9 °F 88.8 °F 73.0 °F 72% 30.08 in 10.0 mi SE 4.6 mph - N/A   Mostly Cloudy
1:53 AM 82.0 °F 87.4 °F 73.0 °F 74% 30.07 in 10.0 mi ESE 5.8 mph - 0.00 in   Scattered Clouds
2:53 AM 82.0 °F 87.4 °F 73.0 °F 74% 30.05 in 10.0 mi ESE 5.8 mph - N/A   Scattered Clouds
3:53 AM 81.0 °F 85.8 °F 73.0 °F 77% 30.04 in 10.0 mi SE 4.6 mph - N/A   Scattered Clouds
4:53 AM 82.0 °F 87.4 °F 73.0 °F 74% 30.04 in 10.0 mi ESE 5.8 mph - N/A   Mostly Cloudy
5:26 AM 82.0 °F 87.4 °F 73.0 °F 74% 30.04 in 10.0 mi SE 3.5 mph - N/A Thunderstorm Thunderstorm
5:53 AM 81.0 °F 86.2 °F 73.9 °F 79% 30.04 in 10.0 mi East 6.9 mph - 0.00 in   Mostly Cloudy
6:53 AM 81.0 °F 86.2 °F 73.9 °F 79% 30.06 in 10.0 mi ESE 6.9 mph - N/A   Mostly Cloudy
7:53 AM 82.0 °F 87.9 °F 73.9 °F 76% 30.08 in 10.0 mi ESE 13.8 mph - N/A   Mostly Cloudy
8:19 AM 82.0 °F 86.7 °F 72.0 °F 71% 30.09 in 10.0 mi ESE 8.1 mph - N/A Thunderstorm Thunderstorm
8:53 AM 82.9 °F 89.4 °F 73.9 °F 74% 30.10 in 10.0 mi SSE 10.4 mph - N/A Thunderstorm Thunderstorm
9:53 AM 82.9 °F 89.4 °F 73.9 °F 74% 30.09 in 10.0 mi East 5.8 mph - N/A Thunderstorm Thunderstorm
9:55 AM 82.9 °F 89.4 °F 73.9 °F 74% 30.09 in 10.0 mi ENE 5.8 mph - N/A   Mostly Cloudy
10:53 AM 87.1 °F 95.4 °F 73.9 °F 65% 30.09 in 10.0 mi SE 12.7 mph - N/A   Mostly Cloudy
11:53 AM 87.1 °F 95.4 °F 73.9 °F 65% 30.10 in 10.0 mi SE 8.1 mph - N/A   Mostly Cloudy
12:53 PM 90.0 °F 96.9 °F 72.0 °F 55% 30.09 in 10.0 mi ESE 15.0 mph - N/A   Mostly Cloudy
1:53 PM 90.0 °F 99.0 °F 73.9 °F 59% 30.08 in 10.0 mi ESE 13.8 mph - N/A   Mostly Cloudy
2:53 PM 88.0 °F 95.6 °F 73.0 °F 61% 30.06 in 10.0 mi ESE 8.1 mph - N/A   Mostly Cloudy
3:53 PM 89.1 °F 98.0 °F 73.9 °F 61% 30.05 in 10.0 mi ESE 13.8 mph 18.4 mph N/A   Mostly Cloudy
4:53 PM 89.1 °F 98.0 °F 73.9 °F 61% 30.04 in 10.0 mi East 16.1 mph - N/A   Partly Cloudy
5:53 PM 86.0 °F 93.8 °F 73.9 °F 67% 30.03 in 10.0 mi ESE 10.4 mph - N/A   Mostly Cloudy
6:53 PM 84.0 °F 90.2 °F 73.0 °F 69% 30.03 in 10.0 mi SSE 8.1 mph - N/A   Mostly Cloudy
7:53 PM 84.0 °F 91.9 °F 75.0 °F 74% 30.04 in 10.0 mi ESE 6.9 mph - N/A   Mostly Cloudy
8:53 PM 82.9 °F 90.2 °F 75.0 °F 77% 30.05 in 10.0 mi SE 8.1 mph - N/A   Mostly Cloudy
9:53 PM 82.9 °F 90.2 °F 75.0 °F 77% 30.06 in 10.0 mi SSE 6.9 mph - N/A   Mostly Cloudy
10:53 PM 82.9 °F 89.4 °F 73.9 °F 74% 30.08 in 10.0 mi SSE 3.5 mph - N/A   Partly Cloudy
11:53 PM 82.0 °F 88.6 °F 75.0 °F 79% 30.08 in 10.0 mi SE 5.8 mph - N/A   Partly Cloudy